Time,TemperatureF,DewpointF,PressureIn,WindDirection,WindDirectionDegrees,WindSpeedMPH,WindSpeedGustMPH,Humidity,HourlyPrecipIn,Conditions,Clouds,dailyrainin,SoftwareType,DateUTC
2013-06-11 00:01:00,64.6,6.9,29.23,North,0,0.0,0.0,1,0.00,,,0.00,WUHU216HW,2013-06-11 04:01:00,
2013-06-11 00:02:00,64.6,6.9,29.23,North,0,0.0,0.0,1,0.00,,,0.00,WUHU216HW,2013-06-11 04:02:00,
2013-06-11 00:07:00,64.4,6.7,29.23,North,0,0.0,0.0,1,0.00,,,0.00,WUHU216HW,2013-06-11 04:07:00,
2013-06-11 00:13:00,64.4,6.7,29.23,North,0,0.0,0.0,1,0.00,,,0.00,WUHU216HW,2013-06-11 04:13:00,
2013-06-11 00:18:00,64.3,6.6,29.23,North,0,0.0,0.0,1,0.00,,,0.00,WUHU216HW,2013-06-11 04:18:00,
2013-06-11 00:23:00,64.1,6.4,29.23,North,0,0.0,0.0,1,0.00,,,0.00,WUHU216HW,2013-06-11 04:23:00,
2013-06-11 00:28:00,64.3,6.6,29.24,North,0,0.0,0.0,1,0.00,,,0.00,WUHU216HW,2013-06-11 04:28:00,
2013-06-11 00:33:00,64.1,6.4,29.23,North,0,0.0,0.0,1,0.00,,,0.00,WUHU216HW,2013-06-11 04:33:00,
2013-06-11 00:38:00,64.1,6.4,29.24,North,0,0.0,0.0,1,0.00,,,0.00,WUHU216HW,2013-06-11 04:38:00,
2013-06-11 00:43:00,63.9,6.3,29.23,North,0,0.0,0.0,1,0.00,,,0.00,WUHU216HW,2013-06-11 04:43:00,
2013-06-11 00:48:00,63.9,6.3,29.23,North,0,0.0,0.0,1,0.00,,,0.00,WUHU216HW,2013-06-11 04:48:00,
2013-06-11 00:53:00,63.9,6.3,29.23,North,0,0.0,0.0,1,0.00,,,0.00,WUHU216HW,2013-06-11 04:53:00,
2013-06-11 00:58:00,63.7,6.1,29.23,North,0,0.0,0.0,1,0.00,,,0.00,WUHU216HW,2013-06-11 04:58:00,
2013-06-11 01:03:00,63.7,6.1,29.23,North,0,0.0,0.0,1,0.00,,,0.00,WUHU216HW,2013-06-11 05:03:00,
2013-06-11 01:08:00,63.7,6.1,29.24,North,0,0.0,0.0,1,0.00,,,0.00,WUHU216HW,2013-06-11 05:08:00,
2013-06-11 01:13:00,63.7,6.1,29.24,North,0,0.0,0.0,1,0.00,,,0.00,WUHU216HW,2013-06-11 05:13:00,
2013-06-11 01:18:00,63.7,6.1,29.24,North,0,0.0,0.0,1,0.00,,,0.00,WUHU216HW,2013-06-11 05:18:00,
2013-06-11 01:23:00,63.5,6.0,29.24,North,0,0.0,0.0,1,0.00,,,0.00,WUHU216HW,2013-06-11 05:23:00,
2013-06-11 01:28:00,63.4,6.0,29.24,North,0,0.0,0.0,1,0.00,,,0.00,WUHU216HW,2013-06-11 05:28:00,
2013-06-11 01:34:00,63.4,6.0,29.24,North,0,0.0,0.0,1,0.00,,,0.00,WUHU216HW,2013-06-11 05:34:00,
2013-06-11 01:39:00,63.4,6.0,29.24,North,0,0.0,0.0,1,0.00,,,0.00,WUHU216HW,2013-06-11 05:39:00,
2013-06-11 01:44:00,63.4,6.0,29.24,North,0,0.0,0.0,1,0.00,,,0.00,WUHU216HW,2013-06-11 05:44:00,
2013-06-11 01:49:00,63.2,5.8,29.24,North,0,0.0,0.0,1,0.00,,,0.00,WUHU216HW,2013-06-11 05:49:00,
2013-06-11 01:54:00,63.0,5.7,29.24,North,0,0.0,0.0,1,0.00,,,0.00,WUHU216HW,2013-06-11 05:54:00,
2013-06-11 01:59:00,63.0,5.7,29.24,North,0,0.0,0.0,1,0.00,,,0.00,WUHU216HW,2013-06-11 05:59:00,
2013-06-11 02:04:00,62.8,5.5,29.24,North,0,0.0,0.0,1,0.00,,,0.00,WUHU216HW,2013-06-11 06:04:00,
2013-06-11 02:09:00,62.6,5.4,29.24,North,0,0.0,0.0,1,0.00,,,0.00,WUHU216HW,2013-06-11 06:09:00,
2013-06-11 02:14:00,62.6,5.4,29.24,North,0,0.0,0.0,1,0.00,,,0.00,WUHU216HW,2013-06-11 06:14:00,
2013-06-11 02:19:00,62.6,5.4,29.24,North,0,0.0,0.0,1,0.00,,,0.00,WUHU216HW,2013-06-11 06:19:00,
2013-06-11 02:24:00,62.5,5.2,29.24,North,0,0.0,0.0,1,0.00,,,0.00,WUHU216HW,2013-06-11 06:24:00,
2013-06-11 02:29:00,62.3,5.1,29.24,North,0,0.0,0.0,1,0.00,,,0.00,WUHU216HW,2013-06-11 06:29:00,
2013-06-11 02:34:00,62.3,5.1,29.24,North,0,0.0,0.0,1,0.00,,,0.00,WUHU216HW,2013-06-11 06:34:00,
2013-06-11 02:39:00,62.3,5.1,29.24,North,0,0.0,0.0,1,0.00,,,0.00,WUHU216HW,2013-06-11 06:39:00,
2013-06-11 02:45:00,62.3,5.1,29.24,North,0,0.0,0.0,1,0.00,,,0.00,WUHU216HW,2013-06-11 06:45:00,
2013-06-11 02:50:00,62.3,5.1,29.25,North,0,0.0,0.0,1,0.00,,,0.00,WUHU216HW,2013-06-11 06:50:00,
2013-06-11 02:55:00,62.3,5.1,29.24,North,0,0.0,0.0,1,0.00,,,0.00,WUHU216HW,2013-06-11 06:55:00,
2013-06-11 03:00:00,62.3,5.1,29.24,North,0,0.0,0.0,1,0.00,,,0.00,WUHU216HW,2013-06-11 07:00:00,
2013-06-11 03:05:00,62.1,5.0,29.24,North,0,0.0,0.0,1,0.00,,,0.00,WUHU216HW,2013-06-11 07:05:00,
2013-06-11 03:10:00,62.1,5.0,29.24,North,0,0.0,0.0,1,0.00,,,0.00,WUHU216HW,2013-06-11 07:10:00,
2013-06-11 03:15:00,62.1,5.0,29.25,North,0,0.0,0.0,1,0.00,,,0.00,WUHU216HW,2013-06-11 07:15:00,
2013-06-11 03:20:00,61.9,4.9,29.25,North,0,0.0,0.0,1,0.00,,,0.00,WUHU216HW,2013-06-11 07:20:00,
2013-06-11 03:25:00,61.9,4.9,29.25,North,0,0.0,0.0,1,0.00,,,0.00,WUHU216HW,2013-06-11 07:25:00,
2013-06-11 03:30:00,61.7,4.7,29.25,North,0,0.0,0.0,1,0.00,,,0.00,WUHU216HW,2013-06-11 07:30:00,
2013-06-11 03:35:00,61.7,4.7,29.25,North,0,0.0,0.0,1,0.00,,,0.00,WUHU216HW,2013-06-11 07:35:00,
2013-06-11 03:40:00,61.6,4.5,29.25,North,0,0.0,0.0,1,0.00,,,0.00,WUHU216HW,2013-06-11 07:40:00,
2013-06-11 03:46:00,61.6,4.5,29.25,North,0,0.0,0.0,1,0.00,,,0.00,WUHU216HW,2013-06-11 07:46:00,
2013-06-11 03:51:00,61.6,4.5,29.25,North,0,0.0,0.0,1,0.00,,,0.00,WUHU216HW,2013-06-11 07:51:00,
2013-06-11 03:56:00,61.4,4.4,29.25,North,0,0.0,0.0,1,0.00,,,0.00,WUHU216HW,2013-06-11 07:56:00,
2013-06-11 04:01:00,61.4,4.4,29.25,North,0,0.0,0.0,1,0.00,,,0.00,WUHU216HW,2013-06-11 08:01:00,
2013-06-11 04:06:00,61.2,4.2,29.25,North,0,0.0,0.0,1,0.00,,,0.00,WUHU216HW,2013-06-11 08:06:00,
2013-06-11 04:11:00,61.2,4.2,29.26,North,0,0.0,0.0,1,0.00,,,0.00,WUHU216HW,2013-06-11 08:11:00,
2013-06-11 04:16:00,61.2,4.2,29.26,North,0,0.0,0.0,1,0.00,,,0.00,WUHU216HW,2013-06-11 08:16:00,
2013-06-11 04:21:00,61.2,4.2,29.26,North,0,0.0,0.0,1,0.00,,,0.00,WUHU216HW,2013-06-11 08:21:00,
2013-06-11 04:26:00,61.2,4.2,29.26,North,0,0.0,0.0,1,0.00,,,0.00,WUHU216HW,2013-06-11 08:26:00,
2013-06-11 04:31:00,61.2,4.2,29.26,North,0,0.0,0.0,1,0.00,,,0.00,WUHU216HW,2013-06-11 08:31:00,
2013-06-11 04:36:00,61.2,4.2,29.27,North,0,0.0,0.0,1,0.00,,,0.00,WUHU216HW,2013-06-11 08:36:00,
2013-06-11 04:41:00,61.0,4.2,29.27,North,0,0.0,0.0,1,0.00,,,0.00,WUHU216HW,2013-06-11 08:41:00,
2013-06-11 04:47:00,61.0,4.2,29.27,North,0,0.0,0.0,1,0.00,,,0.00,WUHU216HW,2013-06-11 08:47:00,
2013-06-11 04:52:00,61.0,4.2,29.27,North,0,0.0,0.0,1,0.00,,,0.00,WUHU216HW,2013-06-11 08:52:00,
2013-06-11 04:57:00,60.8,4.0,29.27,North,0,0.0,0.0,1,0.00,,,0.00,WUHU216HW,2013-06-11 08:57:00,
2013-06-11 05:02:00,60.8,4.0,29.27,North,0,0.0,0.0,1,0.00,,,0.00,WUHU216HW,2013-06-11 09:02:00,
2013-06-11 05:07:00,60.8,4.0,29.27,North,0,0.0,0.0,1,0.00,,,0.00,WUHU216HW,2013-06-11 09:07:00,
2013-06-11 05:12:00,60.8,4.0,29.27,North,0,0.0,0.0,1,0.00,,,0.00,WUHU216HW,2013-06-11 09:12:00,
2013-06-11 05:17:00,60.7,3.8,29.27,North,0,0.0,0.0,1,0.00,,,0.00,WUHU216HW,2013-06-11 09:17:00,
2013-06-11 05:22:00,60.7,3.8,29.28,North,0,0.0,0.0,1,0.00,,,0.00,WUHU216HW,2013-06-11 09:22:00,
2013-06-11 05:27:00,60.7,3.8,29.27,North,0,0.0,0.0,1,0.00,,,0.00,WUHU216HW,2013-06-11 09:27:00,
2013-06-11 05:32:00,60.5,3.7,29.27,North,0,0.0,0.0,1,0.00,,,0.00,WUHU216HW,2013-06-11 09:32:00,
2013-06-11 05:37:00,60.5,3.7,29.27,North,0,0.0,0.0,1,0.00,,,0.00,WUHU216HW,2013-06-11 09:37:00,
2013-06-11 05:42:00,60.5,3.7,29.28,North,0,0.0,0.0,1,0.00,,,0.00,WUHU216HW,2013-06-11 09:42:00,
2013-06-11 05:47:00,60.5,3.7,29.28,North,0,0.0,0.0,1,0.00,,,0.00,WUHU216HW,2013-06-11 09:47:00,
2013-06-11 05:53:00,60.5,3.7,29.28,North,0,0.0,0.0,1,0.00,,,0.00,WUHU216HW,2013-06-11 09:53:00,
2013-06-11 05:58:00,60.5,3.7,29.28,North,0,0.0,0.0,1,0.00,,,0.00,WUHU216HW,2013-06-11 09:58:00,
2013-06-11 06:03:00,60.5,3.7,29.29,North,0,0.0,0.0,1,0.00,,,0.00,WUHU216HW,2013-06-11 10:03:00,
2013-06-11 06:08:00,60.3,3.5,29.29,North,0,0.0,0.0,1,0.00,,,0.00,WUHU216HW,2013-06-11 10:08:00,
2013-06-11 06:13:00,60.3,3.5,29.29,North,0,0.0,0.0,1,0.00,,,0.00,WUHU216HW,2013-06-11 10:13:00,
2013-06-11 06:18:00,60.3,3.5,29.29,North,0,0.0,0.0,1,0.00,,,0.00,WUHU216HW,2013-06-11 10:18:00,
2013-06-11 06:23:00,60.3,3.5,29.29,North,0,0.0,0.0,1,0.00,,,0.00,WUHU216HW,2013-06-11 10:23:00,
2013-06-11 06:28:00,60.3,3.5,29.29,North,0,0.0,0.0,1,0.00,,,0.00,WUHU216HW,2013-06-11 10:28:00,
2013-06-11 06:33:00,60.5,3.7,29.29,North,0,0.0,0.0,1,0.00,,,0.00,WUHU216HW,2013-06-11 10:33:00,
2013-06-11 06:38:00,60.3,3.5,29.30,North,0,0.0,0.0,1,0.00,,,0.00,WUHU216HW,2013-06-11 10:38:00,
2013-06-11 06:43:00,60.5,3.7,29.29,North,0,0.0,0.0,1,0.00,,,0.00,WUHU216HW,2013-06-11 10:43:00,
2013-06-11 06:48:00,60.5,3.7,29.30,North,0,0.0,0.0,1,0.00,,,0.00,WUHU216HW,2013-06-11 10:48:00,
2013-06-11 06:53:00,60.7,3.8,29.30,North,0,0.0,0.0,1,0.00,,,0.00,WUHU216HW,2013-06-11 10:53:00,
2013-06-11 06:58:00,60.8,4.0,29.30,North,0,0.0,0.0,1,0.00,,,0.00,WUHU216HW,2013-06-11 10:58:00,
2013-06-11 07:03:00,60.8,4.0,29.30,North,0,0.0,0.0,1,0.00,,,0.00,WUHU216HW,2013-06-11 11:03:00,
2013-06-11 07:08:00,61.0,4.2,29.31,North,0,0.0,0.0,1,0.00,,,0.00,WUHU216HW,2013-06-11 11:08:00,
2013-06-11 07:13:00,61.2,4.2,29.31,North,0,0.0,0.0,1,0.00,,,0.00,WUHU216HW,2013-06-11 11:13:00,
2013-06-11 07:19:00,61.6,4.5,29.30,North,0,0.0,0.0,1,0.00,,,0.00,WUHU216HW,2013-06-11 11:19:00,
2013-06-11 07:24:00,61.9,4.9,29.30,North,0,0.0,0.0,1,0.00,,,0.00,WUHU216HW,2013-06-11 11:24:00,
2013-06-11 07:29:00,62.1,5.0,29.30,North,0,0.0,0.0,1,0.00,,,0.00,WUHU216HW,2013-06-11 11:29:00,
2013-06-11 07:34:00,62.5,5.2,29.31,North,0,0.0,0.0,1,0.00,,,0.00,WUHU216HW,2013-06-11 11:34:00,
2013-06-11 07:39:00,63.2,5.8,29.31,North,0,0.0,0.0,1,0.00,,,0.00,WUHU216HW,2013-06-11 11:39:00,
2013-06-11 07:44:00,63.7,6.1,29.31,North,0,0.0,0.0,1,0.00,,,0.00,WUHU216HW,2013-06-11 11:44:00,
2013-06-11 07:49:00,64.3,6.6,29.32,North,0,0.0,0.0,1,0.00,,,0.00,WUHU216HW,2013-06-11 11:49:00,
2013-06-11 07:54:00,64.8,6.9,29.32,North,0,0.0,0.0,1,0.00,,,0.00,WUHU216HW,2013-06-11 11:54:00,
2013-06-11 07:59:00,65.2,7.2,29.32,North,0,0.0,0.0,1,0.00,,,0.00,WUHU216HW,2013-06-11 11:59:00,
2013-06-11 08:05:00,65.7,7.7,29.32,North,0,0.0,0.0,1,0.00,,,0.00,WUHU216HW,2013-06-11 12:05:00,
2013-06-11 08:10:00,65.9,7.8,29.31,North,0,0.0,0.0,1,0.00,,,0.00,WUHU216HW,2013-06-11 12:10:00,
2013-06-11 08:15:00,66.4,8.3,29.31,North,0,0.0,0.0,1,0.00,,,0.00,WUHU216HW,2013-06-11 12:15:00,
2013-06-11 08:20:00,66.6,8.4,29.31,North,0,0.0,0.0,1,0.00,,,0.00,WUHU216HW,2013-06-11 12:20:00,
2013-06-11 08:25:00,66.8,8.6,29.31,North,0,0.0,0.0,1,0.00,,,0.00,WUHU216HW,2013-06-11 12:25:00,
2013-06-11 08:30:00,67.1,8.8,29.31,North,0,0.0,0.0,1,0.00,,,0.00,WUHU216HW,2013-06-11 12:30:00,
2013-06-11 08:35:00,67.3,9.0,29.32,North,0,0.0,0.0,1,0.00,,,0.00,WUHU216HW,2013-06-11 12:35:00,
2013-06-11 08:40:00,67.5,9.1,29.32,North,0,0.0,0.0,1,0.00,,,0.00,WUHU216HW,2013-06-11 12:40:00,
2013-06-11 08:45:00,67.9,9.4,29.32,North,0,0.0,0.0,1,0.00,,,0.00,WUHU216HW,2013-06-11 12:45:00,
2013-06-11 08:50:00,68.2,9.6,29.32,North,0,0.0,0.0,1,0.00,,,0.00,WUHU216HW,2013-06-11 12:50:00,
2013-06-11 08:55:00,68.6,9.9,29.33,North,0,0.0,0.0,1,0.00,,,0.00,WUHU216HW,2013-06-11 12:55:00,
2013-06-11 09:00:00,68.9,10.2,29.33,North,0,0.0,0.0,1,0.00,,,0.00,WUHU216HW,2013-06-11 13:00:00,
2013-06-11 09:06:00,69.3,10.5,29.33,North,0,0.0,0.0,1,0.00,,,0.00,WUHU216HW,2013-06-11 13:06:00,
2013-06-11 09:11:00,69.7,10.7,29.32,North,0,0.0,0.0,1,0.00,,,0.00,WUHU216HW,2013-06-11 13:11:00,
2013-06-11 09:16:00,70.0,11.0,29.32,North,0,0.0,0.0,1,0.00,,,0.00,WUHU216HW,2013-06-11 13:16:00,
2013-06-11 09:21:00,70.2,11.1,29.32,North,0,0.0,0.0,1,0.00,,,0.00,WUHU216HW,2013-06-11 13:21:00,
2013-06-11 09:26:00,70.6,11.3,29.32,North,0,0.0,0.0,1,0.00,,,0.00,WUHU216HW,2013-06-11 13:26:00,
2013-06-11 09:31:00,70.9,11.7,29.33,North,0,0.0,0.0,1,0.00,,,0.00,WUHU216HW,2013-06-11 13:31:00,
2013-06-11 09:36:00,71.3,12.0,29.32,North,0,0.0,0.0,1,0.00,,,0.00,WUHU216HW,2013-06-11 13:36:00,
2013-06-11 09:41:00,71.8,12.4,29.33,North,0,0.0,0.0,1,0.00,,,0.00,WUHU216HW,2013-06-11 13:41:00,
2013-06-11 09:46:00,72.4,12.8,29.33,North,0,0.0,0.0,1,0.00,,,0.00,WUHU216HW,2013-06-11 13:46:00,
2013-06-11 09:51:00,72.5,13.0,29.33,North,0,0.0,0.0,1,0.00,,,0.00,WUHU216HW,2013-06-11 13:51:00,
2013-06-11 09:56:00,72.9,13.2,29.33,North,0,0.0,0.0,1,0.00,,,0.00,WUHU216HW,2013-06-11 13:56:00,
2013-06-11 10:01:00,73.3,13.5,29.33,North,0,0.0,0.0,1,0.00,,,0.00,WUHU216HW,2013-06-11 14:01:00,
2013-06-11 10:06:00,73.8,14.0,29.34,North,0,0.0,0.0,1,0.00,,,0.00,WUHU216HW,2013-06-11 14:06:00,
2013-06-11 10:11:00,74.3,14.3,29.32,North,0,0.0,0.0,1,0.00,,,0.00,WUHU216HW,2013-06-11 14:11:00,
2013-06-11 10:16:00,74.5,14.4,29.32,North,0,0.0,0.0,1,0.00,,,0.00,WUHU216HW,2013-06-11 14:16:00,
2013-06-11 10:21:00,74.9,14.7,29.32,North,0,0.0,0.0,1,0.00,,,0.00,WUHU216HW,2013-06-11 14:21:00,
2013-06-11 10:27:00,75.2,14.9,29.32,North,0,0.0,0.0,1,0.00,,,0.00,WUHU216HW,2013-06-11 14:27:00,
2013-06-11 10:32:00,75.2,14.9,29.33,North,0,0.0,0.0,1,0.00,,,0.00,WUHU216HW,2013-06-11 14:32:00,
2013-06-11 10:37:00,75.8,15.4,29.33,North,0,0.0,0.0,1,0.00,,,0.00,WUHU216HW,2013-06-11 14:37:00,
2013-06-11 10:42:00,76.0,15.5,29.32,North,0,0.0,0.0,1,0.00,,,0.00,WUHU216HW,2013-06-11 14:42:00,
2013-06-11 10:47:00,76.5,15.9,29.33,North,0,0.0,0.0,1,0.00,,,0.00,WUHU216HW,2013-06-11 14:47:00,
2013-06-11 10:52:00,76.7,16.1,29.32,North,0,0.0,0.0,1,0.00,,,0.00,WUHU216HW,2013-06-11 14:52:00,
2013-06-11 10:57:00,77.2,16.5,29.33,North,0,0.0,0.0,1,0.00,,,0.00,WUHU216HW,2013-06-11 14:57:00,
2013-06-11 11:02:00,77.4,16.7,29.33,North,0,0.0,0.0,1,0.00,,,0.00,WUHU216HW,2013-06-11 15:02:00,
2013-06-11 11:07:00,77.8,16.9,29.33,North,0,0.0,0.0,1,0.00,,,0.00,WUHU216HW,2013-06-11 15:07:00,
2013-06-11 11:12:00,78.7,17.6,29.33,North,0,0.0,0.0,1,0.00,,,0.00,WUHU216HW,2013-06-11 15:12:00,
2013-06-11 11:17:00,78.8,17.6,29.33,North,0,0.0,0.0,1,0.00,,,0.00,WUHU216HW,2013-06-11 15:17:00,
2013-06-11 11:23:00,79.0,17.8,29.33,North,0,0.0,0.0,1,0.00,,,0.00,WUHU216HW,2013-06-11 15:23:00,
2013-06-11 11:28:00,79.0,17.8,29.33,North,0,0.0,0.0,1,0.00,,,0.00,WUHU216HW,2013-06-11 15:28:00,
2013-06-11 11:33:00,79.4,18.1,29.33,North,0,0.0,0.0,1,0.00,,,0.00,WUHU216HW,2013-06-11 15:33:00,
2013-06-11 11:38:00,79.6,18.2,29.33,North,0,0.0,0.0,1,0.00,,,0.00,WUHU216HW,2013-06-11 15:38:00,
2013-06-11 11:43:00,79.4,18.1,29.33,North,0,0.0,0.0,1,0.00,,,0.00,WUHU216HW,2013-06-11 15:43:00,
2013-06-11 11:48:00,79.6,18.2,29.33,North,0,0.0,0.0,1,0.00,,,0.00,WUHU216HW,2013-06-11 15:48:00,
2013-06-11 11:53:00,80.1,18.6,29.33,North,0,0.0,0.0,1,0.00,,,0.00,WUHU216HW,2013-06-11 15:53:00,
2013-06-11 11:58:00,80.6,19.1,29.32,North,0,0.0,0.0,1,0.00,,,0.00,WUHU216HW,2013-06-11 15:58:00,
2013-06-11 12:03:00,81.0,19.4,29.33,North,0,0.0,0.0,1,0.00,,,0.00,WUHU216HW,2013-06-11 16:03:00,
2013-06-11 12:08:00,81.0,19.4,29.33,North,0,0.0,0.0,1,0.00,,,0.00,WUHU216HW,2013-06-11 16:08:00,
2013-06-11 12:13:00,81.9,20.1,29.33,North,0,0.0,0.0,1,0.00,,,0.00,WUHU216HW,2013-06-11 16:13:00,
2013-06-11 12:18:00,81.7,20.0,29.33,North,0,0.0,0.0,1,0.00,,,0.00,WUHU216HW,2013-06-11 16:18:00,
2013-06-11 12:23:00,81.5,19.8,29.33,North,0,0.0,0.0,1,0.00,,,0.00,WUHU216HW,2013-06-11 16:23:00,
2013-06-11 12:28:00,81.2,19.5,29.33,North,0,0.0,0.0,1,0.00,,,0.00,WUHU216HW,2013-06-11 16:28:00,
2013-06-11 12:34:00,81.5,19.8,29.32,North,0,0.0,0.0,1,0.00,,,0.00,WUHU216HW,2013-06-11 16:34:00,
2013-06-11 12:39:00,82.3,20.3,29.32,North,0,0.0,0.0,1,0.00,,,0.00,WUHU216HW,2013-06-11 16:39:00,
2013-06-11 12:44:00,82.1,20.3,29.32,North,0,0.0,0.0,1,0.00,,,0.00,WUHU216HW,2013-06-11 16:44:00,
2013-06-11 12:49:00,82.3,20.3,29.32,North,0,0.0,0.0,1,0.00,,,0.00,WUHU216HW,2013-06-11 16:49:00,
2013-06-11 12:54:00,82.4,20.5,29.32,North,0,0.0,0.0,1,0.00,,,0.00,WUHU216HW,2013-06-11 16:54:00,
2013-06-11 12:59:00,82.6,20.6,29.32,North,0,0.0,0.0,1,0.00,,,0.00,WUHU216HW,2013-06-11 16:59:00,
2013-06-11 13:04:00,82.8,20.8,29.32,North,0,0.0,0.0,1,0.00,,,0.00,WUHU216HW,2013-06-11 17:04:00,
2013-06-11 13:09:00,83.5,21.2,29.32,North,0,0.0,0.0,1,0.00,,,0.00,WUHU216HW,2013-06-11 17:09:00,
2013-06-11 13:14:00,84.2,21.8,29.32,North,0,0.0,0.0,1,0.00,,,0.00,WUHU216HW,2013-06-11 17:14:00,
2013-06-11 13:19:00,84.6,22.1,29.32,North,0,0.0,0.0,1,0.00,,,0.00,WUHU216HW,2013-06-11 17:19:00,
2013-06-11 13:24:00,84.6,22.1,29.32,North,0,0.0,0.0,1,0.00,,,0.00,WUHU216HW,2013-06-11 17:24:00,
2013-06-11 13:29:00,85.0,22.3,29.31,North,0,0.0,0.0,1,0.00,,,0.00,WUHU216HW,2013-06-11 17:29:00,
2013-06-11 13:34:00,85.0,22.3,29.31,North,0,0.0,0.0,2,0.00,,,0.00,WUHU216HW,2013-06-11 17:34:00,
2013-06-11 13:40:00,85.3,22.7,29.31,North,0,0.0,0.0,1,0.00,,,0.00,WUHU216HW,2013-06-11 17:40:00,
2013-06-11 13:45:00,85.1,22.5,29.31,North,0,0.0,0.0,8,0.00,,,0.00,WUHU216HW,2013-06-11 17:45:00,
2013-06-11 13:50:00,85.3,22.7,29.31,North,0,0.0,0.0,1,0.00,,,0.00,WUHU216HW,2013-06-11 17:50:00,
2013-06-11 13:55:00,85.3,22.7,29.31,North,0,0.0,0.0,10,0.00,,,0.00,WUHU216HW,2013-06-11 17:55:00,
2013-06-11 14:00:00,85.7,23.0,29.31,North,0,0.0,0.0,1,0.00,,,0.00,WUHU216HW,2013-06-11 18:00:00,
2013-06-11 14:05:00,86.6,23.7,29.31,North,0,0.0,0.0,1,0.00,,,0.00,WUHU216HW,2013-06-11 18:05:00,
2013-06-11 14:10:00,87.7,24.5,29.30,North,0,0.0,0.0,1,0.00,,,0.00,WUHU216HW,2013-06-11 18:10:00,
2013-06-11 14:15:00,88.6,25.2,29.30,North,0,0.0,0.0,1,0.00,,,0.00,WUHU216HW,2013-06-11 18:15:00,
2013-06-11 14:20:00,88.2,33.6,29.30,North,0,0.0,0.0,15,0.00,,,0.00,WUHU216HW,2013-06-11 18:20:00,
2013-06-11 14:25:00,88.4,52.0,29.30,North,0,0.0,0.0,29,0.00,,,0.00,WUHU216HW,2013-06-11 18:25:00,
2013-06-11 14:30:00,88.2,37.0,29.30,North,0,0.0,0.0,17,0.00,,,0.00,WUHU216HW,2013-06-11 18:30:00,
2013-06-11 14:35:00,88.7,27.0,29.30,North,0,0.0,0.0,11,0.00,,,0.00,WUHU216HW,2013-06-11 18:35:00,
2013-06-11 14:40:00,88.9,46.3,29.30,North,0,0.0,0.0,23,0.00,,,0.00,WUHU216HW,2013-06-11 18:40:00,
2013-06-11 14:45:00,89.6,45.7,29.30,North,0,0.0,0.0,22,0.00,,,0.00,WUHU216HW,2013-06-11 18:45:00,
2013-06-11 14:50:00,90.4,37.0,29.30,North,0,0.0,0.0,16,0.00,,,0.00,WUHU216HW,2013-06-11 18:50:00,
2013-06-11 14:55:00,90.4,58.0,29.30,North,0,0.0,0.0,34,0.00,,,0.00,WUHU216HW,2013-06-11 18:55:00,
2013-06-11 15:00:00,90.7,60.7,29.29,North,0,0.0,0.0,37,0.00,,,0.00,WUHU216HW,2013-06-11 19:00:00,
2013-06-11 15:06:00,90.7,59.1,29.29,North,0,0.0,0.0,35,0.00,,,0.00,WUHU216HW,2013-06-11 19:06:00,
2013-06-11 15:11:00,90.9,58.5,29.29,North,0,0.0,0.0,34,0.00,,,0.00,WUHU216HW,2013-06-11 19:11:00,
2013-06-11 15:16:00,91.4,59.8,29.29,North,0,0.0,0.0,35,0.00,,,0.00,WUHU216HW,2013-06-11 19:16:00,
2013-06-11 15:21:00,91.8,60.0,29.29,North,0,0.0,0.0,35,0.00,,,0.00,WUHU216HW,2013-06-11 19:21:00,
2013-06-11 15:26:00,91.8,62.5,29.29,North,0,0.0,0.0,38,0.00,,,0.00,WUHU216HW,2013-06-11 19:26:00,
2013-06-11 15:31:00,91.6,59.1,29.28,North,0,0.0,0.0,34,0.00,,,0.00,WUHU216HW,2013-06-11 19:31:00,
2013-06-11 15:36:00,92.0,59.4,29.28,North,0,0.0,0.0,34,0.00,,,0.00,WUHU216HW,2013-06-11 19:36:00,
2013-06-11 15:41:00,92.0,62.7,29.28,North,0,0.0,0.0,38,0.00,,,0.00,WUHU216HW,2013-06-11 19:41:00,
2013-06-11 15:46:00,91.4,62.1,29.28,North,0,0.0,0.0,38,0.00,,,0.00,WUHU216HW,2013-06-11 19:46:00,
2013-06-11 15:52:00,91.3,62.7,29.28,North,0,0.0,0.0,39,0.00,,,0.00,WUHU216HW,2013-06-11 19:52:00,
2013-06-11 15:57:00,90.4,61.2,29.27,North,0,0.0,0.0,38,0.00,,,0.00,WUHU216HW,2013-06-11 19:57:00,
2013-06-11 16:02:00,90.4,58.8,29.28,North,0,0.0,0.0,35,0.00,,,0.00,WUHU216HW,2013-06-11 20:02:00,
2013-06-11 16:07:00,90.7,60.7,29.28,North,0,0.0,0.0,37,0.00,,,0.00,WUHU216HW,2013-06-11 20:07:00,
2013-06-11 16:12:00,90.7,57.5,29.28,North,0,0.0,0.0,33,0.00,,,0.00,WUHU216HW,2013-06-11 20:12:00,
2013-06-11 16:17:00,91.4,59.0,29.28,North,0,0.0,0.0,34,0.00,,,0.00,WUHU216HW,2013-06-11 20:17:00,
2013-06-11 16:22:00,92.2,58.0,29.29,North,0,0.0,0.0,32,0.00,,,0.00,WUHU216HW,2013-06-11 20:22:00,
2013-06-11 16:27:00,91.1,61.8,29.28,North,0,0.0,0.0,38,0.00,,,0.00,WUHU216HW,2013-06-11 20:27:00,
2013-06-11 16:32:00,90.0,61.7,29.28,North,0,0.0,0.0,39,0.00,,,0.00,WUHU216HW,2013-06-11 20:32:00,
2013-06-11 16:37:00,89.6,57.3,29.28,North,0,0.0,0.0,34,0.00,,,0.00,WUHU216HW,2013-06-11 20:37:00,
2013-06-11 16:42:00,90.2,58.6,29.27,North,0,0.0,0.0,35,0.00,,,0.00,WUHU216HW,2013-06-11 20:42:00,
2013-06-11 16:47:00,91.1,58.7,29.27,North,0,0.0,0.0,34,0.00,,,0.00,WUHU216HW,2013-06-11 20:47:00,
2013-06-11 16:52:00,90.4,59.6,29.27,North,0,0.0,0.0,36,0.00,,,0.00,WUHU216HW,2013-06-11 20:52:00,
2013-06-11 16:57:00,89.1,57.7,29.28,North,0,0.0,0.0,35,0.00,,,0.00,WUHU216HW,2013-06-11 20:57:00,
2013-06-11 17:02:00,87.5,53.9,29.29,North,0,0.0,0.0,32,0.00,,,0.00,WUHU216HW,2013-06-11 21:02:00,
2013-06-11 17:08:00,86.4,36.4,29.29,North,0,0.0,0.0,17,0.00,,,0.00,WUHU216HW,2013-06-11 21:08:00,
2013-06-11 17:13:00,85.3,34.7,29.30,North,0,0.0,0.0,17,0.00,,,0.00,WUHU216HW,2013-06-11 21:13:00,
2013-06-11 17:18:00,84.6,22.1,29.30,North,0,0.0,0.0,7,0.00,,,0.00,WUHU216HW,2013-06-11 21:18:00,
2013-06-11 17:23:00,83.7,21.4,29.30,North,0,0.0,0.0,1,0.00,,,0.00,WUHU216HW,2013-06-11 21:23:00,
2013-06-11 17:28:00,82.8,20.8,29.30,North,0,0.0,0.0,1,0.00,,,0.00,WUHU216HW,2013-06-11 21:28:00,
2013-06-11 17:33:00,82.3,20.3,29.29,North,0,0.0,0.0,1,0.00,,,0.00,WUHU216HW,2013-06-11 21:33:00,
2013-06-11 17:38:00,81.5,19.8,29.29,North,0,0.0,0.0,1,0.00,,,0.00,WUHU216HW,2013-06-11 21:38:00,
2013-06-11 17:43:00,81.5,19.8,29.29,North,0,0.0,0.0,1,0.00,,,0.00,WUHU216HW,2013-06-11 21:43:00,
2013-06-11 17:48:00,81.2,19.5,29.29,North,0,0.0,0.0,1,0.00,,,0.00,WUHU216HW,2013-06-11 21:48:00,
2013-06-11 17:53:00,81.0,19.4,29.28,North,0,0.0,0.0,1,0.00,,,0.00,WUHU216HW,2013-06-11 21:53:00,
2013-06-11 17:58:00,81.0,19.4,29.28,North,0,0.0,0.0,1,0.00,,,0.00,WUHU216HW,2013-06-11 21:58:00,
2013-06-11 18:03:00,80.8,19.3,29.27,North,0,0.0,0.0,1,0.00,,,0.00,WUHU216HW,2013-06-11 22:03:00,
2013-06-11 18:09:00,81.0,19.4,29.28,North,0,0.0,0.0,1,0.00,,,0.00,WUHU216HW,2013-06-11 22:09:00,
2013-06-11 18:14:00,81.0,19.4,29.27,North,0,0.0,0.0,1,0.00,,,0.00,WUHU216HW,2013-06-11 22:14:00,
2013-06-11 18:19:00,81.4,19.6,29.27,North,0,0.0,0.0,1,0.00,,,0.00,WUHU216HW,2013-06-11 22:19:00,
2013-06-11 18:24:00,82.1,20.3,29.26,North,0,0.0,0.0,1,0.00,,,0.00,WUHU216HW,2013-06-11 22:24:00,
2013-06-11 18:29:00,82.6,20.6,29.26,North,0,0.0,0.0,1,0.00,,,0.00,WUHU216HW,2013-06-11 22:29:00,
2013-06-11 18:34:00,82.8,20.8,29.26,North,0,0.0,0.0,1,0.00,,,0.00,WUHU216HW,2013-06-11 22:34:00,
2013-06-11 18:39:00,83.0,20.9,29.25,North,0,0.0,0.0,1,0.00,,,0.00,WUHU216HW,2013-06-11 22:39:00,
2013-06-11 18:44:00,83.2,21.1,29.25,North,0,0.0,0.0,1,0.00,,,0.00,WUHU216HW,2013-06-11 22:44:00,
2013-06-11 18:49:00,83.3,21.2,29.24,North,0,0.0,0.0,1,0.00,,,0.00,WUHU216HW,2013-06-11 22:49:00,
2013-06-11 18:54:00,83.2,21.1,29.24,North,0,0.0,0.0,1,0.00,,,0.00,WUHU216HW,2013-06-11 22:54:00,
2013-06-11 18:59:00,82.8,20.8,29.24,North,0,0.0,0.0,1,0.00,,,0.00,WUHU216HW,2013-06-11 22:59:00,
2013-06-11 19:04:00,82.6,20.6,29.24,North,0,0.0,0.0,1,0.00,,,0.00,WUHU216HW,2013-06-11 23:04:00,
2013-06-11 19:09:00,82.6,20.6,29.24,North,0,0.0,0.0,1,0.00,,,0.00,WUHU216HW,2013-06-11 23:09:00,
2013-06-11 19:14:00,82.3,20.3,29.24,North,0,0.0,0.0,1,0.00,,,0.00,WUHU216HW,2013-06-11 23:14:00,
2013-06-11 19:19:00,82.1,20.3,29.24,North,0,0.0,0.0,1,0.00,,,0.00,WUHU216HW,2013-06-11 23:19:00,
2013-06-11 19:25:00,81.7,20.0,29.24,North,0,0.0,0.0,1,0.00,,,0.00,WUHU216HW,2013-06-11 23:25:00,
2013-06-11 19:30:00,81.7,20.0,29.24,North,0,0.0,0.0,1,0.00,,,0.00,WUHU216HW,2013-06-11 23:30:00,
2013-06-11 19:35:00,81.5,19.8,29.24,North,0,0.0,0.0,1,0.00,,,0.00,WUHU216HW,2013-06-11 23:35:00,
2013-06-11 19:40:00,81.4,19.6,29.25,North,0,0.0,0.0,1,0.00,,,0.00,WUHU216HW,2013-06-11 23:40:00,
2013-06-11 19:45:00,81.0,19.4,29.27,North,0,0.0,0.0,1,0.00,,,0.00,WUHU216HW,2013-06-11 23:45:00,
2013-06-11 19:50:00,80.3,18.8,29.28,North,0,0.0,0.0,1,0.00,,,0.00,WUHU216HW,2013-06-11 23:50:00,
2013-06-11 19:55:00,79.9,18.6,29.29,North,0,0.0,0.0,1,0.00,,,0.00,WUHU216HW,2013-06-11 23:55:00,
2013-06-11 20:00:00,79.6,18.2,29.29,North,0,0.0,0.0,1,0.00,,,0.00,WUHU216HW,2013-06-12 00:00:00,
2013-06-11 20:05:00,79.2,17.9,29.30,North,0,0.0,0.0,1,0.00,,,0.00,WUHU216HW,2013-06-12 00:05:00,
2013-06-11 20:10:00,79.2,17.9,29.29,North,0,0.0,0.0,1,0.00,,,0.00,WUHU216HW,2013-06-12 00:10:00,
2013-06-11 20:15:00,79.0,17.8,29.29,North,0,0.0,0.0,1,0.00,,,0.00,WUHU216HW,2013-06-12 00:15:00,
2013-06-11 20:21:00,78.8,17.6,29.28,North,0,0.0,0.0,1,0.00,,,0.00,WUHU216HW,2013-06-12 00:21:00,
2013-06-11 20:26:00,79.0,17.8,29.26,North,0,0.0,0.0,1,0.00,,,0.00,WUHU216HW,2013-06-12 00:26:00,
2013-06-11 20:31:00,79.2,17.9,29.27,North,0,0.0,0.0,1,0.00,,,0.00,WUHU216HW,2013-06-12 00:31:00,
2013-06-11 20:36:00,78.8,17.6,29.27,North,0,0.0,0.0,1,0.00,,,0.00,WUHU216HW,2013-06-12 00:36:00,
2013-06-11 20:41:00,78.8,17.6,29.27,North,0,0.0,0.0,1,0.00,,,0.00,WUHU216HW,2013-06-12 00:41:00,
2013-06-11 20:46:00,78.7,17.6,29.27,North,0,0.0,0.0,1,0.00,,,0.00,WUHU216HW,2013-06-12 00:46:00,
2013-06-11 20:51:00,78.5,17.4,29.28,North,0,0.0,0.0,1,0.00,,,0.00,WUHU216HW,2013-06-12 00:51:00,
2013-06-11 20:56:00,78.5,17.4,29.27,North,0,0.0,0.0,1,0.00,,,0.00,WUHU216HW,2013-06-12 00:56:00,
2013-06-11 21:02:00,78.5,17.4,29.26,North,0,0.0,0.0,1,0.00,,,0.00,WUHU216HW,2013-06-12 01:02:00,
2013-06-11 21:07:00,78.1,17.1,29.26,North,0,0.0,0.0,1,0.00,,,0.00,WUHU216HW,2013-06-12 01:07:00,
2013-06-11 21:12:00,77.9,17.0,29.27,North,0,0.0,0.0,1,0.00,,,0.00,WUHU216HW,2013-06-12 01:12:00,
2013-06-11 21:17:00,77.6,16.7,29.27,North,0,0.0,0.0,1,0.00,,,0.00,WUHU216HW,2013-06-12 01:17:00,
2013-06-11 21:22:00,77.4,16.7,29.26,North,0,0.0,0.0,1,0.00,,,0.00,WUHU216HW,2013-06-12 01:22:00,
2013-06-11 21:27:00,77.0,16.4,29.27,North,0,0.0,0.0,1,0.00,,,0.00,WUHU216HW,2013-06-12 01:27:00,
2013-06-11 21:32:00,77.0,16.4,29.27,North,0,0.0,0.0,1,0.00,,,0.00,WUHU216HW,2013-06-12 01:32:00,
2013-06-11 21:37:00,76.9,16.2,29.26,North,0,0.0,0.0,1,0.00,,,0.00,WUHU216HW,2013-06-12 01:37:00,
2013-06-11 21:42:00,76.9,16.2,29.26,North,0,0.0,0.0,1,0.00,,,0.00,WUHU216HW,2013-06-12 01:42:00,
2013-06-11 21:47:00,76.9,16.2,29.27,North,0,0.0,0.0,1,0.00,,,0.00,WUHU216HW,2013-06-12 01:47:00,
2013-06-11 21:52:00,76.7,16.1,29.27,North,0,0.0,0.0,1,0.00,,,0.00,WUHU216HW,2013-06-12 01:52:00,
2013-06-11 21:57:00,76.7,16.1,29.27,North,0,0.0,0.0,1,0.00,,,0.00,WUHU216HW,2013-06-12 01:57:00,
2013-06-11 22:02:00,76.5,15.9,29.27,North,0,0.0,0.0,1,0.00,,,0.00,WUHU216HW,2013-06-12 02:02:00,
2013-06-11 22:08:00,76.1,15.7,29.27,North,0,0.0,0.0,1,0.00,,,0.00,WUHU216HW,2013-06-12 02:08:00,
2013-06-11 22:13:00,76.0,15.5,29.27,North,0,0.0,0.0,1,0.00,,,0.00,WUHU216HW,2013-06-12 02:13:00,
2013-06-11 22:18:00,76.0,15.5,29.27,North,0,0.0,0.0,1,0.00,,,0.00,WUHU216HW,2013-06-12 02:18:00,
2013-06-11 22:23:00,75.6,15.2,29.27,North,0,0.0,0.0,1,0.00,,,0.00,WUHU216HW,2013-06-12 02:23:00,
2013-06-11 22:28:00,75.2,14.9,29.26,North,0,0.0,0.0,1,0.00,,,0.00,WUHU216HW,2013-06-12 02:28:00,
2013-06-11 22:33:00,74.9,14.7,29.26,North,0,0.0,0.0,1,0.00,,,0.00,WUHU216HW,2013-06-12 02:33:00,
2013-06-11 22:38:00,74.7,14.6,29.26,North,0,0.0,0.0,1,0.00,,,0.00,WUHU216HW,2013-06-12 02:38:00,
2013-06-11 22:43:00,74.5,14.4,29.26,North,0,0.0,0.0,1,0.00,,,0.00,WUHU216HW,2013-06-12 02:43:00,
2013-06-11 22:48:00,74.3,14.3,29.26,North,0,0.0,0.0,1,0.00,,,0.00,WUHU216HW,2013-06-12 02:48:00,
2013-06-11 22:53:00,74.2,14.2,29.25,North,0,0.0,0.0,1,0.00,,,0.00,WUHU216HW,2013-06-12 02:53:00,
2013-06-11 22:58:00,74.3,14.3,29.26,North,0,0.0,0.0,1,0.00,,,0.00,WUHU216HW,2013-06-12 02:58:00,
2013-06-11 23:03:00,74.3,14.3,29.25,North,0,0.0,0.0,1,0.00,,,0.00,WUHU216HW,2013-06-12 03:03:00,
2013-06-11 23:08:00,74.5,14.4,29.25,North,0,0.0,0.0,1,0.00,,,0.00,WUHU216HW,2013-06-12 03:08:00,
2013-06-11 23:14:00,74.5,14.4,29.25,North,0,0.0,0.0,1,0.00,,,0.00,WUHU216HW,2013-06-12 03:14:00,
2013-06-11 23:19:00,74.7,14.6,29.25,North,0,0.0,0.0,1,0.00,,,0.00,WUHU216HW,2013-06-12 03:19:00,
2013-06-11 23:24:00,74.5,14.4,29.26,North,0,0.0,0.0,1,0.00,,,0.00,WUHU216HW,2013-06-12 03:24:00,
2013-06-11 23:29:00,74.5,14.4,29.26,North,0,0.0,0.0,1,0.00,,,0.00,WUHU216HW,2013-06-12 03:29:00,
2013-06-11 23:34:00,74.5,14.4,29.26,North,0,0.0,0.0,1,0.00,,,0.00,WUHU216HW,2013-06-12 03:34:00,
2013-06-11 23:39:00,74.5,14.4,29.26,North,0,0.0,0.0,1,0.00,,,0.00,WUHU216HW,2013-06-12 03:39:00,
2013-06-11 23:44:00,74.5,14.4,29.26,North,0,0.0,0.0,1,0.00,,,0.00,WUHU216HW,2013-06-12 03:44:00,
2013-06-11 23:49:00,74.3,14.3,29.26,North,0,0.0,0.0,1,0.00,,,0.00,WUHU216HW,2013-06-12 03:49:00,
2013-06-11 23:54:00,74.0,14.0,29.26,North,0,0.0,0.0,1,0.00,,,0.00,WUHU216HW,2013-06-12 03:54:00,
2013-06-11 23:59:00,73.6,13.8,29.26,North,0,0.0,0.0,1,0.00,,,0.00,WUHU216HW,2013-06-12 03:59:00,